Tracking 17141 objects as of 6-July-2015
HD Live streaming from Space Station

ZY 3

Track ZY 3 now!
10-day predictions
ZY 3 is classified as:


NORAD ID: 38046
Int'l Code: 2012-001A
Perigee: 508.3 km
Apogee: 510.6 km
Inclination: 97.4 °
Period: 94.7 minutes
Semi major axis: 6880 km
RCS: 5.391 m2 (large)
Launch date: January 9, 2012
Source: People's Republic of China (PRC)
Your satellite tracking list
Your tracking list is empty





NASA's NSSDC Master Catalog

Two Line Element Set (TLE):
1 38046U 12001A   15186.80698063  .00003327  00000-0  15231-3 0  9996
2 38046 097.3655 261.0716 0001667 046.9573 091.0839 15.21180216193645

Source of the keplerian elements: AFSPC

N2YO: 251